GW1995 Weather Reports


Display with metric or nautical units.
time (UTC)temp
F
wind
direction
speed
MPH
gust
MPH
rain 1hr
in
rain 24hr
in
rain mn
in
humidity
%
barometer
mb
20260510051854 49 273 1.0 1.0 0.00 0.00 0.00 48 1014.9
20260510051350 49 274 0.0 1.0 0.00 0.00 0.00 47 1015.0
20260510050847 50 274 0.0 1.0 0.00 0.00 0.00 46 1014.9
20260510050344 50 276 0.0 1.0 0.00 0.00 0.00 44 1015.0
20260510045841 50 263 1.0 1.0 0.00 0.00 0.00 44 1014.8
20260510045338 50 292 1.0 2.0 0.00 0.00 0.00 43 1014.8
20260510044835 50 299 2.0 3.0 0.00 0.00 0.00 43 1014.8
20260510044332 50 279 3.0 5.0 0.00 0.00 0.00 43 1014.7
20260510043828 50 277 1.0 2.0 0.00 0.00 0.00 44 1014.7
20260510043324 50 286 1.0 2.0 0.00 0.00 0.00 45 1014.5
20260510042822 50 271 0.0 2.0 0.00 0.00 0.00 45 1014.5
20260510042318 50 280 0.0 1.0 0.00 0.00 0.00 46 1014.6
20260510041814 50 280 0.0 0.0 0.00 0.00 0.00 46 1014.6
20260510041312 50 280 0.0 1.0 0.00 0.00 0.00 45 1014.4
20260510040809 51 280 0.0 1.0 0.00 0.00 0.00 44 1014.4
20260510040305 51 280 0.0 0.0 0.00 0.00 0.00 43 1014.0
20260510035801 51 281 1.0 1.0 0.00 0.00 0.00 43 1014.2
20260510035257 51 281 1.0 1.0 0.00 0.00 0.00 43 1014.1
20260510034753 51 281 0.0 1.0 0.00 0.00 0.00 43 1014.1
20260510034251 51 280 0.0 0.0 0.00 0.00 0.00 43 1014.0
20260510033747 51 281 0.0 1.0 0.00 0.00 0.00 42 1014.0
20260510033244 52 280 0.0 0.0 0.00 0.00 0.00 41 1014.1
20260510032740 52 280 0.0 1.0 0.00 0.00 0.00 41 1014.0
20260510032237 53 280 0.0 1.0 0.00 0.00 0.00 40 1013.9
20260510031732 53 280 0.0 1.0 0.00 0.00 0.00 40 1013.9
20260510031228 53 282 1.0 1.0 0.00 0.00 0.00 39 1013.8
20260510030727 53 273 0.0 1.0 0.00 0.00 0.00 38 1013.8
20260510030225 54 277 0.0 1.0 0.00 0.00 0.00 38 1013.4
20260510025722 54 281 0.0 1.0 0.00 0.00 0.00 37 1013.3
20260510025214 54 268 1.0 2.0 0.00 0.00 0.00 37 1013.2
20260510024711 54 270 0.0 1.0 0.00 0.00 0.00 38 1013.3
20260510024207 54 290 0.0 2.0 0.00 0.00 0.00 36 1013.0
20260510023703 54 311 1.0 2.0 0.00 0.00 0.00 35 1012.9
20260510023200 54 284 2.0 3.0 0.00 0.00 0.00 35 1012.6
20260510022656 54 280 1.0 2.0 0.00 0.00 0.00 35 1012.5
20260510022150 54 276 1.0 2.0 0.00 0.00 0.00 35 1012.5
20260510021645 54 258 0.0 1.0 0.00 0.00 0.00 36 1012.3
20260510021138 54 303 2.0 5.0 0.00 0.00 0.00 36 1012.2
20260510020632 54 279 0.0 1.0 0.00 0.00 0.00 36 1012.3
20260510020127 54 290 1.0 2.0 0.00 0.00 0.00 36 1012.1
20260510015624 54 279 1.0 1.0 0.00 0.00 0.00 36 1012.0
20260510015120 54 276 0.0 1.0 0.00 0.00 0.00 36 1011.9
20260510014615 55 283 1.0 3.0 0.00 0.00 0.00 35 1011.7
20260510014113 55 279 1.0 1.0 0.00 0.00 0.00 34 1011.8
20260510013608 55 296 1.0 2.0 0.00 0.00 0.00 34 1011.5
20260510013104 56 279 1.0 2.0 0.00 0.00 0.00 33 1011.6
20260510012603 56 268 0.0 1.0 0.00 0.00 0.00 33 1011.4
20260510012100 56 282 0.0 2.0 0.00 0.00 0.00 32 1011.3
20260510011559 56 287 1.0 2.0 0.00 0.00 0.00 32 1011.3
20260510011055 57 283 1.0 3.0 0.00 0.00 0.00 31 1011.1
20260510010552 57 249 1.0 6.0 0.00 0.00 0.00 30 1011.1
20260510010049 57 317 3.0 7.0 0.00 0.00 0.00 30 1011.2
20260510005544 57 293 5.0 6.0 0.00 0.00 0.00 31 1011.0
20260510005042 57 306 4.0 8.0 0.00 0.00 0.00 30 1010.8
20260510004540 58 298 5.0 8.0 0.00 0.00 0.00 30 1011.0
20260510004038 58 330 3.0 6.0 0.00 0.00 0.00 30 1010.9
20260510003534 58 290 4.0 6.0 0.00 0.00 0.00 29 1010.9
20260510003030 58 308 2.0 6.0 0.00 0.00 0.00 29 1010.8
20260510002525 58 277 4.0 14.0 0.00 0.00 0.00 30 1010.6
20260510002023 58 269 2.0 5.0 0.00 0.00 0.00 30 1010.6
20260510001520 59 331 5.0 7.0 0.00 0.00 0.00 31 1010.6
20260510001018 59 271 1.0 5.0 0.00 0.00 0.00 32 1010.4
20260510000513 59 61 4.0 5.0 0.00 0.00 0.00 31 1010.4
20260510000010 59 15 2.0 3.0 0.00 0.00 0.00 31 1010.4
20260509235507 59 305 7.0 10.0 0.00 0.00 0.00 30 1010.3
20260509235003 59 358 2.0 6.0 0.00 0.00 0.00 31 1010.4
20260509234500 59 273 5.0 8.0 0.00 0.00 0.00 30 1010.3
20260509233958 59 1 3.0 3.0 0.00 0.00 0.00 30 1010.3
20260509233455 59 18 5.0 7.0 0.00 0.00 0.00 30 1010.3
20260509232950 59 35 4.0 6.0 0.00 0.00 0.00 29 1010.1
20260509232449 60 292 8.0 11.0 0.00 0.00 0.00 28 1010.2
20260509231944 59 28 5.0 9.0 0.00 0.00 0.00 28 1010.3
20260509231441 60 327 3.0 7.0 0.00 0.00 0.00 28 1010.1
20260509230939 59 302 1.0 8.0 0.00 0.00 0.00 28 1010.0
20260509230436 60 282 8.0 15.0 0.00 0.00 0.00 28 1010.0
20260509225932 60 14 6.0 9.0 0.00 0.00 0.00 27 1009.9
20260509225428 60 316 4.0 11.0 0.00 0.00 0.00 28 1010.0
20260509224925 60 315 4.0 8.0 0.00 0.00 0.00 27 1009.9
20260509224420 60 275 3.0 8.0 0.00 0.00 0.00 28 1009.5
20260509223917 60 329 3.0 9.0 0.00 0.00 0.00 27 1009.6
20260509223414 61 267 5.0 6.0 0.00 0.00 0.00 25 1009.4
20260509222911 60 299 6.0 13.0 0.00 0.00 0.00 27 1009.5
20260509222406 60 302 7.0 16.0 0.00 0.00 0.00 26 1009.3
20260509221902 61 293 3.0 7.0 0.00 0.00 0.00 26 1009.6
20260509221400 61 35 7.0 9.0 0.00 0.00 0.00 26 1009.4
20260509220855 61 313 6.0 8.0 0.00 0.00 0.00 26 1009.6
20260509220351 61 289 3.0 7.0 0.00 0.00 0.00 26 1009.2
20260509215847 60 268 3.0 8.0 0.00 0.00 0.00 26 1009.2
20260509215344 60 283 3.0 11.0 0.00 0.00 0.00 26 1009.4
20260509214841 61 250 5.0 13.0 0.00 0.00 0.00 26 1009.2
20260509214338 60 13 5.0 7.0 0.00 0.00 0.00 27 1009.2
20260509213835 60 324 5.0 7.0 0.00 0.00 0.00 27 1009.3
20260509213330 61 309 8.0 13.0 0.00 0.00 0.00 27 1009.4
20260509212828 61 274 3.0 8.0 0.00 0.00 0.00 27 1009.1
20260509212326 61 287 4.0 9.0 0.00 0.00 0.00 26 1009.2
20260509211821 61 314 4.0 15.0 0.00 0.00 0.00 27 1009.1
20260509211317 60 274 2.0 9.0 0.00 0.00 0.00 28 1009.1
20260509210814 61 316 6.0 7.0 0.00 0.00 0.00 27 1009.0
20260509210312 61 231 5.0 10.0 0.00 0.00 0.00 28 1009.0
20260509205811 60 159 3.0 7.0 0.00 0.00 0.00 27 1008.8
20260509205307 61 287 3.0 9.0 0.00 0.00 0.00 27 1008.9
20260509204803 61 260 3.0 8.0 0.00 0.00 0.00 27 1008.8
20260509204259 61 295 3.0 3.0 0.00 0.00 0.00 29 1008.8
20260509203755 60 251 3.0 7.0 0.00 0.00 0.00 29 1008.8
20260509203253 60 358 7.0 10.0 0.00 0.00 0.00 29 1008.6
20260509202748 61 324 3.0 9.0 0.00 0.00 0.00 29 1008.7
20260509202244 61 262 6.0 7.0 0.00 0.00 0.00 29 1008.8
20260509201738 60 307 2.0 8.0 0.00 0.00 0.00 30 1008.8
20260509201235 61 4 3.0 5.0 0.00 0.00 0.00 30 1008.5
20260509200731 60 295 5.0 9.0 0.00 0.00 0.00 29 1008.7
20260509200227 60 297 5.0 9.0 0.00 0.00 0.00 29 1008.7
20260509195723 60 279 4.0 7.0 0.00 0.00 0.00 30 1008.6
20260509195218 61 294 5.0 8.0 0.00 0.00 0.00 28 1008.7
20260509194713 59 317 4.0 9.0 0.00 0.00 0.00 30 1008.4
20260509194210 59 304 4.0 6.0 0.00 0.00 0.00 31 1008.5
20260509193706 59 341 4.0 8.0 0.00 0.00 0.00 31 1008.7
20260509193201 60 261 3.0 10.0 0.00 0.00 0.00 31 1008.5
20260509192657 60 233 3.0 6.0 0.00 0.00 0.00 31 1008.4
20260509192153 59 285 4.0 7.0 0.00 0.00 0.00 31 1008.3
20260509191648 59 349 4.0 7.0 0.00 0.00 0.00 30 1008.2
20260509191145 60 241 6.0 9.0 0.00 0.00 0.00 32 1008.3
20260509190641 60 265 4.0 8.0 0.00 0.00 0.00 32 1008.2
20260509190138 60 284 3.0 10.0 0.00 0.00 0.00 33 1008.1
20260509185636 59 331 3.0 8.0 0.00 0.00 0.00 36 1008.0
20260509185132 59 277 3.0 10.0 0.00 0.00 0.00 35 1008.1
20260509184630 59 1 6.0 7.0 0.00 0.00 0.00 36 1008.0
20260509184126 59 303 6.0 10.0 0.00 0.00 0.00 35 1008.0
20260509183623 59 27 8.0 10.0 0.00 0.00 0.00 34 1008.1
20260509183118 58 257 1.0 10.0 0.00 0.00 0.00 35 1008.0
20260509182614 60 355 8.0 14.0 0.00 0.00 0.00 35 1007.7
20260509182111 59 261 3.0 6.0 0.00 0.00 0.00 36 1007.6
20260509181609 59 285 3.0 10.0 0.00 0.00 0.00 37 1007.6
20260509181106 58 331 9.0 11.0 0.00 0.00 0.00 38 1007.6
20260509180603 59 305 8.0 10.0 0.00 0.00 0.00 37 1007.5
20260509180100 58 294 3.0 10.0 0.00 0.00 0.00 38 1007.4
20260509175555 58 3 4.0 9.0 0.00 0.00 0.00 37 1007.5
20260509175052 60 270 7.0 9.0 0.00 0.00 0.00 36 1007.5
20260509174548 59 303 7.0 8.0 0.00 0.00 0.00 37 1007.4
20260509174043 59 330 4.0 10.0 0.00 0.00 0.00 38 1007.3
20260509173538 58 325 4.0 11.0 0.00 0.00 0.00 38 1007.4
20260509173035 58 1 8.0 15.0 0.00 0.00 0.00 39 1007.3
20260509172532 58 27 5.0 10.0 0.00 0.00 0.00 38 1007.2
20260509172028 58 320 4.0 11.0 0.00 0.00 0.00 38 1007.5
20260509171524 58 283 5.0 10.0 0.00 0.00 0.00 39 1007.1
20260509171021 58 43 5.0 9.0 0.00 0.00 0.00 38 1007.2
20260509170516 58 276 7.0 8.0 0.00 0.00 0.00 38 1007.2
20260509170012 58 302 7.0 9.0 0.00 0.00 0.00 38 1007.0
20260509165511 58 359 5.0 9.0 0.00 0.00 0.00 37 1007.1
20260509165007 58 14 7.0 11.0 0.00 0.00 0.00 37 1007.2
20260509164503 58 309 7.0 10.0 0.00 0.00 0.00 37 1007.2
20260509163958 58 315 8.0 9.0 0.00 0.00 0.00 36 1006.9
20260509163456 58 234 3.0 6.0 0.00 0.00 0.00 40 1006.9
20260509162955 57 28 3.0 8.0 0.00 0.00 0.00 41 1006.8
20260509162454 57 296 4.0 9.0 0.00 0.00 0.00 40 1006.6
20260509161950 57 339 4.0 9.0 0.00 0.00 0.00 41 1006.5
20260509161446 57 334 5.0 13.0 0.00 0.00 0.00 41 1006.6
20260509160942 57 348 4.0 11.0 0.00 0.00 0.00 41 1006.6
20260509160438 57 354 5.0 9.0 0.00 0.00 0.00 40 1006.6
20260509155933 57 288 7.0 8.0 0.00 0.00 0.00 41 1006.6
20260509155430 57 325 8.0 10.0 0.00 0.00 0.00 43 1006.5
20260509154927 56 320 5.0 11.0 0.00 0.00 0.00 46 1006.6
20260509154423 56 324 4.0 8.0 0.00 0.00 0.00 46 1006.6
20260509153920 56 272 4.0 7.0 0.00 0.00 0.00 46 1006.4
20260509153417 55 316 7.0 13.0 0.00 0.00 0.00 47 1006.3
20260509152914 55 306 3.0 7.0 0.00 0.00 0.00 48 1006.4
20260509152409 55 317 7.0 9.0 0.00 0.00 0.00 48 1006.5
20260509151907 55 262 3.0 8.0 0.00 0.00 0.00 48 1006.3
20260509151403 56 237 3.0 6.0 0.00 0.00 0.00 52 1006.2
20260509150901 55 3 5.0 10.0 0.00 0.00 0.00 54 1006.3
20260509150358 54 0 5.0 9.0 0.00 0.00 0.00 55 1005.9
20260509145856 54 165 4.0 8.0 0.00 0.00 0.00 56 1006.0
20260509145350 53 11 4.0 9.0 0.00 0.00 0.00 57 1006.0
20260509144847 54 273 4.0 9.0 0.00 0.00 0.00 58 1005.8
20260509144344 54 256 4.0 10.0 0.00 0.00 0.00 57 1005.8
20260509143841 54 304 5.0 9.0 0.00 0.00 0.00 58 1005.6
20260509143338 53 301 2.0 5.0 0.00 0.00 0.00 63 1005.5
20260509142834 53 116 3.0 6.0 0.00 0.00 0.00 62 1005.5
20260509142331 53 269 3.0 6.0 0.00 0.00 0.00 65 1005.6
20260509141827 53 129 2.0 7.0 0.00 0.00 0.00 66 1005.6
20260509141328 52 311 2.0 7.0 0.00 0.00 0.00 66 1005.3
20260509140820 52 318 2.0 6.0 0.00 0.00 0.00 67 1005.1
20260509140317 53 316 5.0 7.0 0.00 0.00 0.00 67 1005.2
20260509135816 54 6 6.0 8.0 0.00 0.00 0.00 65 1005.2
20260509135312 53 55 2.0 7.0 0.00 0.00 0.00 66 1005.0
20260509134810 53 319 6.0 9.0 0.00 0.00 0.00 67 1005.2
20260509134307 52 333 5.0 9.0 0.00 0.00 0.00 68 1004.9
20260509133804 52 346 4.0 7.0 0.00 0.00 0.00 68 1005.0
20260509133300 53 299 7.0 11.0 0.00 0.00 0.00 69 1004.9
20260509132759 53 321 5.0 9.0 0.00 0.00 0.00 70 1004.7
20260509132258 52 306 4.0 6.0 0.00 0.00 0.00 70 1004.6
20260509131754 52 345 5.0 7.0 0.00 0.00 0.00 70 1004.5
20260509131250 52 323 3.0 7.0 0.00 0.00 0.00 72 1004.4
20260509130747 53 302 7.0 9.0 0.00 0.00 0.00 73 1004.4
20260509130242 52 284 1.0 8.0 0.00 0.00 0.00 74 1004.2
20260509125739 52 275 1.0 7.0 0.00 0.00 0.00 73 1004.3
20260509125236 52 315 8.0 9.0 0.00 0.00 0.00 73 1004.1
20260509124732 52 316 3.0 8.0 0.00 0.00 0.00 73 1004.1
20260509124229 52 285 5.0 11.0 0.00 0.00 0.00 73 1004.1
20260509123727 52 304 3.0 7.0 0.00 0.00 0.00 75 1004.0
20260509123224 52 316 2.0 6.0 0.00 0.00 0.00 74 1003.8
20260509122720 53 337 2.0 3.0 0.00 0.00 0.00 73 1003.7
20260509122217 53 26 3.0 5.0 0.00 0.00 0.00 73 1003.6
20260509121714 53 278 4.0 7.0 0.00 0.00 0.00 72 1003.5
20260509121211 52 326 3.0 6.0 0.00 0.00 0.00 71 1003.4
20260509120709 52 272 1.0 5.0 0.00 0.00 0.00 71 1003.5
20260509120207 51 256 0.0 1.0 0.00 0.00 0.00 71 1003.3
20260509115704 51 243 1.0 1.0 0.00 0.00 0.00 71 1003.1
20260509115201 50 229 1.0 1.0 0.00 0.00 0.00 74 1003.1
20260509114700 51 228 0.0 0.0 0.00 0.00 0.00 75 1002.9
20260509114158 51 232 1.0 1.0 0.00 0.00 0.00 75 1003.0
20260509113656 50 232 1.0 1.0 0.00 0.00 0.00 73 1002.7
20260509113153 50 233 0.0 1.0 0.00 0.00 0.00 74 1002.9
20260509112650 51 232 1.0 1.0 0.00 0.00 0.00 71 1002.6
20260509112147 50 232 0.0 1.0 0.00 0.00 0.00 69 1002.6
20260509111644 50 232 0.0 0.0 0.00 0.00 0.00 68 1002.4
20260509111141 50 233 0.0 0.0 0.00 0.00 0.00 69 1002.4
20260509110638 51 232 0.0 1.0 0.00 0.00 0.00 67 1002.5
20260509110135 51 232 1.0 1.0 0.00 0.00 0.00 63 1002.6
20260509105633 52 232 0.0 0.0 0.00 0.00 0.00 60 1002.4
20260509105130 52 232 1.0 1.0 0.00 0.00 0.00 58 1002.4
20260509104627 53 298 0.0 1.0 0.00 0.00 0.00 54 1002.4
20260509104124 53 239 0.0 0.0 0.00 0.00 0.00 53 1002.4
20260509103622 53 219 1.0 1.0 0.00 0.00 0.00 51 1002.0
20260509103120 53 226 1.0 1.0 0.00 0.00 0.00 49 1002.0
20260509102617 53 241 1.0 1.0 0.00 0.00 0.00 49 1002.2
20260509102114 53 246 1.0 1.0 0.00 0.00 0.00 49 1002.4
20260509101610 53 245 0.0 1.0 0.00 0.00 0.00 49 1002.2
20260509101107 53 285 1.0 2.0 0.00 0.00 0.00 48 1002.4
20260509100604 54 297 0.0 1.0 0.00 0.00 0.00 48 1002.3
20260509095557 53 278 0.0 2.0 0.00 0.00 0.00 48 1002.3
20260509095055 53 300 2.0 5.0 0.00 0.00 0.00 47 1002.7
20260509094551 53 295 1.0 3.0 0.00 0.00 0.00 48 1002.5
20260509094049 53 272 1.0 1.0 0.00 0.00 0.00 49 1002.3
20260509093547 53 262 1.0 2.0 0.00 0.00 0.00 49 1002.3
20260509093044 53 291 1.0 1.0 0.00 0.00 0.00 49 1002.0
20260509092542 52 279 0.0 2.0 0.00 0.00 0.00 51 1002.0
20260509092040 52 259 0.0 1.0 0.00 0.00 0.00 52 1002.3
20260509091537 52 257 0.0 1.0 0.00 0.00 0.00 51 1002.6
20260509091034 52 255 0.0 0.0 0.00 0.00 0.00 51 1002.2
20260509090531 52 245 1.0 1.0 0.00 0.00 0.00 50 1002.2
20260509090029 52 270 0.0 1.0 0.00 0.00 0.00 49 1002.1
20260509085526 52 299 3.0 3.0 0.00 0.00 0.00 48 1002.2
20260509085022 51 318 2.0 7.0 0.00 0.00 0.00 49 1001.9
20260509084519 51 216 0.0 1.0 0.00 0.00 0.00 48 1001.4
20260509084016 51 216 1.0 1.0 0.00 0.00 0.00 48 1001.2
20260509083513 51 216 0.0 1.0 0.00 0.00 0.00 47 1001.3
20260509083010 51 216 0.0 1.0 0.00 0.00 0.00 48 1001.3
20260509082508 51 216 1.0 1.0 0.00 0.00 0.00 48 1001.2
20260509082004 51 216 0.0 1.0 0.00 0.00 0.00 49 1001.3
20260509081502 51 216 0.0 1.0 0.00 0.00 0.00 49 1001.3
20260509080958 51 214 1.0 1.0 0.00 0.00 0.00 49 1001.2
20260509080456 51 213 0.0 1.0 0.00 0.00 0.00 49 1001.0
20260509075954 51 213 1.0 1.0 0.00 0.00 0.00 48 1001.0
20260509075451 50 212 1.0 2.0 0.00 0.00 0.00 48 1000.8
20260509074949 51 213 1.0 1.0 0.00 0.00 0.00 48 1001.1
20260509074446 51 213 1.0 1.0 0.00 0.00 0.00 48 1001.0
20260509073942 51 213 1.0 1.0 0.00 0.00 0.00 47 1001.1
20260509073439 50 217 0.0 1.0 0.00 0.00 0.00 47 1001.2
20260509072935 50 217 1.0 1.0 0.00 0.00 0.00 49 1001.3
20260509072432 50 217 1.0 1.0 0.00 0.00 0.00 49 1001.4
20260509071929 50 216 1.0 1.0 0.00 0.00 0.00 49 1001.5
20260509071426 50 216 0.0 1.0 0.00 0.00 0.00 49 1001.4
20260509070923 50 215 1.0 1.0 0.00 0.00 0.00 46 1001.4
20260509070420 50 215 1.0 1.0 0.00 0.00 0.00 48 1001.4
20260509065915 50 219 1.0 1.0 0.00 0.00 0.00 48 1001.5
20260509065412 51 218 1.0 1.0 0.00 0.00 0.00 46 1001.4
20260509064908 51 218 0.0 1.0 0.00 0.00 0.00 45 1001.6
20260509064406 51 218 0.0 1.0 0.00 0.00 0.00 45 1001.6
20260509063903 51 226 0.0 1.0 0.00 0.00 0.00 44 1001.7
20260509063359 52 227 0.0 0.0 0.00 0.00 0.00 45 1001.7
20260509062856 52 225 1.0 1.0 0.00 0.00 0.00 45 1001.7
20260509062353 52 213 1.0 2.0 0.00 0.00 0.00 45 1001.7
20260509061851 52 250 1.0 1.0 0.00 0.00 0.00 43 1001.9
20260509061349 53 250 1.0 1.0 0.00 0.00 0.00 42 1001.9
20260509060845 53 250 1.0 1.0 0.00 0.00 0.00 40 1002.0
20260509060342 54 251 0.0 0.0 0.00 0.00 0.00 39 1002.1
20260509055837 54 252 0.0 1.0 0.00 0.00 0.00 39 1002.2
20260509055333 54 251 0.0 1.0 0.00 0.00 0.00 39 1002.0
20260509054831 55 251 0.0 0.0 0.00 0.00 0.00 38 1002.0
20260509054327 56 251 0.0 1.0 0.00 0.00 0.00 36 1002.1
20260509053826 56 252 0.0 0.0 0.00 0.00 0.00 35 1002.3
20260509053322 57 252 0.0 0.0 0.00 0.00 0.00 34 1002.2
20260509052821 57 265 0.0 0.0 0.00 0.00 0.00 33 1002.4
20260509052318 58 266 0.0 1.0 0.00 0.00 0.00 32 1002.3